DECAYED

OBJECT XE, 62298 (Decayed)

Orbit data source: Space-Track

You're viewing an Uncataloged Satellite

Recently launched and/or uncataloged satellites may have evolving metadata. Metadata may include but not limited to: Owner, Maufacturer, Bus, Motor, and Mission.

OBJECT XE, 62298 was a satellite owned by Chiba kogyu (JP) in LEO that was delivered to and deployed from the ISS. Unknown objects in Earth's orbit typically refer to objects detected orbiting the Earth but have not yet been identified or cataloged. These objects could be anything from previously untracked satellites, spent rocket stages, debris from satellite collisions, or even natural meteoroids temporarily captured by Earth's gravity. This object's orbit decayed before it could be identified.

Not visible in the next 10 days
Identifier
62298, 1998-067XE
Orbit
Decayed
Country
Flag of JPJP / JPN
Related business
Manufacturer
Chiba PERC
Mission
Decayed Amateur Technology
Bus & Motor
CUBESAT 1U, Unknown motor
Mass
1 kg wet, 1 kg dry
Launch date (UTC)
1998-11-20 (28 years ago)
Launch vehicle
FALCON 9
Launch site
Tyuratam Missile And Space Complex (TTMTR)
Object type
Unknown
Shape & HBR
Box, 0.1 m
Radar Cross Section
0.015 m², Medium (>0.1 m² and < 1m²)

Expand to show TLE details & history
Last TLE update: 1 year ago

TLE from 1 year ago
0 OBJECT XE
1 62298U 98067XE  25089.55016338  .06907718  12136-4  12698-2 0  9995
2 62298  51.6023 320.8807 0008675 257.8161 102.1891 16.31399071 17459
Epoch: 2025-03-30T13:12Z
TLE epoch observation values (Epoch: 2025-03-30T13:12:14.116Z)
Latitude
0.00006°
Longitude
-65.35687°
Altitude
190.753 km
Speed
7.793 km/s
True Right ascension
21h 23m 31s
True Declination
0° 00' 00"
Sunlit
Object was in daylight at epoch
Visualization orbit readout
Latitude
Unknown
Longitude
Unknown
Altitude
Unknown
Speed
Unknown
Apparent Right ascension
Unknown
Apparent Declination
Unknown
Sunlit
N/A
Visualization observer readout
Local Sidereal Time
07:22:03
Azimuth
Unknown
Elevation
Unknown
Doppler factor
Unknown
Orbital elements
Apogee altitude
195.012 km
Perigee altitude
183.617 km
Semi-major axis
6,567.451 km
Eccentricity
0.00087
Inclination
51.6023°
RAAN
320.8807°
Arg. of periapsis
257.8161°
True anomaly
102.28624°
Mean anomaly
102.1891°
Eccentric anomaly
102.23767°
Mean motion
4.07801 °/min
Orbital period
88.28 mins
BSTAR
0.0012698
Loading maneuver chart data...
Computing Atmospheric mass density...

Documentation

Showing up to 5 results
|